This is the latest recevied weather packets stored in our database for station/object DL9RAN-11. If no packets are shown the sender has not sent any weather packets the latest 1 day(s).
| Time | Temp. | Humidity | Pressure | Rain* | Wind** | Luminosity | Snow |
|---|---|---|---|---|---|---|---|
| 1778054025 | 17.22° C | 68% | 1010.8 hPa | - | - | - | - |
| 1778052731 | 16.67° C | 69% | 1011.1 hPa | - | - | - | - |
| 1778051768 | 15.56° C | 71% | 1010.8 hPa | - | - | - | - |
| 1778051468 | 15.56° C | 71% | 1010.8 hPa | - | - | - | - |
| 1778039740 | 12.78° C | 76% | 1011.2 hPa | - | - | - | - |
| 1778039109 | 12.78° C | 76% | 1011.3 hPa | - | - | - | - |
| 1778038508 | 12.78° C | 76% | 1011.3 hPa | - | - | - | - |
| 1778038208 | 12.78° C | 76% | 1011.2 hPa | - | - | - | - |
| 1778037307 | 12.78° C | 76% | 1011.2 hPa | - | - | - | - |
| 1778037007 | 13.33° C | 76% | 1011.1 hPa | - | - | - | - |
| 1778036706 | 13.33° C | 76% | 1011.1 hPa | - | - | - | - |
| 1778036406 | 13.33° C | 76% | 1010.9 hPa | - | - | - | - |
| 1778036106 | 13.33° C | 76% | 1011.1 hPa | - | - | - | - |
| 1778035505 | 13.33° C | 76% | 1011.1 hPa | - | - | - | - |
| 1778035205 | 13.33° C | 76% | 1011.1 hPa | - | - | - | - |
| 1778033972 | 13.89° C | 76% | 1011.1 hPa | - | - | - | - |
| 1778033010 | 13.89° C | 77% | 1011.4 hPa | - | - | - | - |
| 1778031716 | 13.89° C | 76% | 1011.3 hPa | - | - | - | - |
| 1778031416 | 13.89° C | 76% | 1011.2 hPa | - | - | - | - |
| 1778030784 | 13.89° C | 75% | 1011.3 hPa | - | - | - | - |
| 1778030153 | 14.44° C | 74% | 1011.5 hPa | - | - | - | - |
| 1778029190 | 15° C | 73% | 1011.5 hPa | - | - | - | - |
| 1778028227 | 15° C | 74% | 1011.8 hPa | - | - | - | - |
| 1778027927 | 15° C | 73% | 1011.8 hPa | - | - | - | - |
| 1778026333 | 15° C | 74% | 1011.8 hPa | - | - | - | - |
* Rain since midnight (hover to see other rain measurements)
** Current wind speed in m/s (hover to see current wind gust speed)